Wetterdaten: Samstag, 21.09.2013
Datum Zeit Temperatur Luftfeuchte Luftdruck Regen Wind Richtung Richtung Taupunkt Windchill Windben
21.09.2013 00:00 11,1 C 84 % 1023,4 hPa 0,0 l/m 1,4 km/h (1 Bft) S 180 8,5 C 11,3 C 1,8 km/h (1 Bft)
21.09.2013 00:05 11,1 C 84 % 1023,6 hPa 0,0 l/m 1,8 km/h (1 Bft) SO 135 8,5 C 11,3 C 2,3 km/h (1 Bft)
21.09.2013 00:10 11,1 C 85 % 1023,6 hPa 0,0 l/m 1,8 km/h (1 Bft) S-SO 157 8,7 C 11,3 C 3,2 km/h (1 Bft)
21.09.2013 00:15 11,1 C 85 % 1023,6 hPa 0,0 l/m 1,8 km/h (1 Bft) O 90 8,7 C 11,3 C 2,3 km/h (1 Bft)
21.09.2013 00:20 11,1 C 85 % 1023,6 hPa 0,0 l/m 2,1 km/h (1 Bft) S-SO 157 8,7 C 11,2 C 5,1 km/h (1 Bft)
21.09.2013 00:25 11,1 C 85 % 1023,6 hPa 0,0 l/m 2,1 km/h (1 Bft) S 180 8,7 C 11,2 C 2,4 km/h (1 Bft)
21.09.2013 00:30 11,1 C 85 % 1023,6 hPa 0,0 l/m 3,2 km/h (1 Bft) O-SO 112 8,7 C 11,3 C 10,5 km/h (2 Bft)
21.09.2013 00:35 11,1 C 85 % 1023,6 hPa 0,0 l/m 3,4 km/h (1 Bft) S-SO 157 8,7 C 11,4 C 5,3 km/h (1 Bft)
21.09.2013 00:40 11,1 C 85 % 1023,6 hPa 0,0 l/m 3,1 km/h (1 Bft) O-SO 112 8,7 C 11,4 C 4,3 km/h (1 Bft)
21.09.2013 00:45 11,1 C 85 % 1023,7 hPa 0,0 l/m 3,1 km/h (1 Bft) S 180 8,7 C 11,4 C 3,2 km/h (1 Bft)
21.09.2013 00:50 11,1 C 85 % 1023,7 hPa 0,0 l/m 3,1 km/h (1 Bft) S-SO 157 8,7 C 11,4 C 3,1 km/h (1 Bft)
21.09.2013 00:55 11,1 C 84 % 1023,7 hPa 0,0 l/m 2,7 km/h (1 Bft) S 180 8,5 C 11,4 C 1,6 km/h (1 Bft)
21.09.2013 01:00 11,0 C 84 % 1023,7 hPa 0,0 l/m 2,9 km/h (1 Bft) S 180 8,4 C 11,3 C 4,0 km/h (1 Bft)
21.09.2013 01:05 10,9 C 84 % 1023,8 hPa 0,0 l/m 2,6 km/h (1 Bft) S 180 8,3 C 11,3 C 3,2 km/h (1 Bft)
21.09.2013 01:10 10,9 C 85 % 1023,8 hPa 0,0 l/m 2,9 km/h (1 Bft) S 180 8,5 C 11,3 C 2,6 km/h (1 Bft)
21.09.2013 01:15 10,8 C 85 % 1023,8 hPa 0,0 l/m 2,4 km/h (1 Bft) S 180 8,4 C 11,3 C 2,3 km/h (1 Bft)
21.09.2013 01:20 10,9 C 85 % 1023,8 hPa 0,0 l/m 3,1 km/h (1 Bft) SO 135 8,5 C 11,2 C 6,8 km/h (2 Bft)
21.09.2013 01:25 10,9 C 84 % 1023,7 hPa 0,0 l/m 3,2 km/h (1 Bft) S 180 8,3 C 11,3 C 5,8 km/h (2 Bft)
21.09.2013 01:30 10,8 C 84 % 1023,7 hPa 0,0 l/m 3,5 km/h (1 Bft) S-SO 157 8,2 C 11,3 C 0,0 km/h (0 Bft)
21.09.2013 01:35 10,8 C 84 % 1023,7 hPa 0,0 l/m 2,7 km/h (1 Bft) S-SO 157 8,2 C 11,2 C 5,0 km/h (1 Bft)
21.09.2013 01:40 10,7 C 84 % 1023,7 hPa 0,0 l/m 2,1 km/h (1 Bft) S-SO 157 8,1 C 11,1 C 4,0 km/h (1 Bft)
21.09.2013 01:45 10,7 C 84 % 1023,8 hPa 0,0 l/m 2,4 km/h (1 Bft) SO 135 8,1 C 11,1 C 4,8 km/h (1 Bft)
21.09.2013 01:50 10,6 C 84 % 1023,8 hPa 0,0 l/m 1,9 km/h (1 Bft) SO 135 8,0 C 11,1 C 0,0 km/h (0 Bft)
21.09.2013 01:55 10,6 C 84 % 1023,8 hPa 0,0 l/m 1,3 km/h (1 Bft) S 180 8,0 C 11,0 C 2,4 km/h (1 Bft)
21.09.2013 02:00 10,6 C 84 % 1023,8 hPa 0,0 l/m 1,4 km/h (1 Bft) S-SO 157 8,0 C 11,0 C 2,6 km/h (1 Bft)
21.09.2013 02:05 10,6 C 84 % 1023,8 hPa 0,0 l/m 1,8 km/h (1 Bft) SO 135 8,0 C 11,0 C 2,6 km/h (1 Bft)
21.09.2013 02:10 10,8 C 83 % 1023,8 hPa 0,0 l/m 1,9 km/h (1 Bft) O-NO 67 8,0 C 11,0 C 1,9 km/h (1 Bft)
21.09.2013 02:15 10,8 C 83 % 1023,8 hPa 0,0 l/m 2,3 km/h (1 Bft) O-SO 112 8,0 C 11,1 C 1,6 km/h (1 Bft)
21.09.2013 02:20 10,8 C 83 % 1023,8 hPa 0,0 l/m 3,1 km/h (1 Bft) S 180 8,0 C 11,1 C 11,3 km/h (2 Bft)
21.09.2013 02:25 10,7 C 83 % 1023,8 hPa 0,0 l/m 2,7 km/h (1 Bft) SO 135 7,9 C 11,1 C 0,0 km/h (0 Bft)
21.09.2013 02:30 10,7 C 83 % 1023,8 hPa 0,0 l/m 1,9 km/h (1 Bft) SO 135 7,9 C 11,1 C 6,8 km/h (2 Bft)
21.09.2013 02:35 10,6 C 83 % 1023,8 hPa 0,0 l/m 1,9 km/h (1 Bft) S 180 7,8 C 11,1 C 1,6 km/h (1 Bft)
21.09.2013 02:40 10,7 C 83 % 1023,8 hPa 0,0 l/m 2,3 km/h (1 Bft) S-SO 157 7,9 C 11,1 C 3,9 km/h (1 Bft)
21.09.2013 02:45 10,7 C 82 % 1023,8 hPa 0,0 l/m 2,3 km/h (1 Bft) S 180 7,8 C 11,1 C 3,5 km/h (1 Bft)
21.09.2013 02:50 10,6 C 82 % 1023,8 hPa 0,0 l/m 2,4 km/h (1 Bft) S 180 7,7 C 11,1 C 2,6 km/h (1 Bft)
21.09.2013 02:55 10,5 C 82 % 1023,8 hPa 0,0 l/m 2,3 km/h (1 Bft) S 180 7,6 C 11,0 C 2,1 km/h (1 Bft)
21.09.2013 03:00 10,3 C 82 % 1023,8 hPa 0,0 l/m 2,3 km/h (1 Bft) SO 135 7,4 C 10,9 C 4,7 km/h (1 Bft)
21.09.2013 03:05 10,4 C 82 % 1023,6 hPa 0,0 l/m 1,9 km/h (1 Bft) O 90 7,5 C 10,9 C 0,0 km/h (0 Bft)
21.09.2013 03:10 10,2 C 82 % 1023,6 hPa 0,0 l/m 1,4 km/h (1 Bft) S-SO 157 7,3 C 10,6 C 4,8 km/h (1 Bft)
21.09.2013 03:15 10,2 C 83 % 1023,6 hPa 0,0 l/m 1,4 km/h (1 Bft) S 180 7,4 C 10,6 C 2,4 km/h (1 Bft)
21.09.2013 03:20 10,3 C 83 % 1023,6 hPa 0,0 l/m 1,9 km/h (1 Bft) S 180 7,5 C 10,7 C 1,8 km/h (1 Bft)
21.09.2013 03:25 10,3 C 83 % 1023,6 hPa 0,0 l/m 1,9 km/h (1 Bft) N 360 7,5 C 10,7 C 2,1 km/h (1 Bft)
21.09.2013 03:30 10,4 C 83 % 1023,6 hPa 0,0 l/m 2,4 km/h (1 Bft) O-SO 112 7,6 C 10,8 C 2,7 km/h (1 Bft)
21.09.2013 03:35 10,4 C 82 % 1023,6 hPa 0,0 l/m 2,4 km/h (1 Bft) O-SO 112 7,5 C 10,7 C 0,0 km/h (0 Bft)
21.09.2013 03:40 10,2 C 82 % 1023,6 hPa 0,0 l/m 1,9 km/h (1 Bft) SO 135 7,3 C 10,6 C 0,0 km/h (0 Bft)
21.09.2013 03:45 10,2 C 82 % 1023,6 hPa 0,0 l/m 2,3 km/h (1 Bft) SO 135 7,3 C 10,6 C 2,4 km/h (1 Bft)
21.09.2013 03:50 10,0 C 82 % 1023,6 hPa 0,0 l/m 2,1 km/h (1 Bft) SW 225 7,1 C 10,5 C 2,7 km/h (1 Bft)
21.09.2013 03:55 9,9 C 83 % 1023,6 hPa 0,0 l/m 1,9 km/h (1 Bft) S-SO 157 7,2 C 10,4 C 2,6 km/h (1 Bft)
21.09.2013 04:00 9,8 C 83 % 1023,6 hPa 0,0 l/m 1,3 km/h (1 Bft) S 180 7,1 C 10,3 C 0,0 km/h (0 Bft)
21.09.2013 04:05 9,7 C 83 % 1024,1 hPa 0,0 l/m 1,1 km/h (1 Bft) S 180 7,0 C 10,2 C 0,0 km/h (0 Bft)
21.09.2013 04:10 9,5 C 83 % 1024,1 hPa 0,0 l/m 0,3 km/h (0 Bft) SO 135 6,8 C 10,0 C 0,0 km/h (0 Bft)
21.09.2013 04:15 9,5 C 84 % 1024,1 hPa 0,0 l/m 0,3 km/h (0 Bft) O 90 6,9 C 9,8 C 0,0 km/h (0 Bft)
21.09.2013 04:20 9,6 C 84 % 1024,1 hPa 0,0 l/m 0,3 km/h (0 Bft) O 90 7,0 C 9,7 C 1,9 km/h (1 Bft)
21.09.2013 04:25 9,6 C 84 % 1024,3 hPa 0,0 l/m 0,3 km/h (0 Bft) O-NO 67 7,0 C 9,7 C 0,0 km/h (0 Bft)
21.09.2013 04:30 9,8 C 85 % 1024,3 hPa 0,0 l/m 1,0 km/h (0 Bft) S-SO 157 7,4 C 9,8 C 2,6 km/h (1 Bft)
21.09.2013 04:35 9,8 C 84 % 1024,3 hPa 0,0 l/m 1,0 km/h (0 Bft) O 90 7,2 C 10,0 C 0,0 km/h (0 Bft)
21.09.2013 04:40 9,8 C 84 % 1024,3 hPa 0,0 l/m 0,6 km/h (0 Bft) NO 45 7,2 C 10,0 C 0,0 km/h (0 Bft)
21.09.2013 04:45 9,8 C 85 % 1024,4 hPa 0,0 l/m 0,3 km/h (0 Bft) O 90 7,4 C 10,0 C 0,0 km/h (0 Bft)
21.09.2013 04:50 10,0 C 84 % 1024,4 hPa 0,0 l/m 0,5 km/h (0 Bft) S-SO 157 7,4 C 10,0 C 0,0 km/h (0 Bft)
21.09.2013 04:55 10,0 C 84 % 1024,4 hPa 0,0 l/m 0,6 km/h (0 Bft) SO 135 7,4 C 10,0 C 3,1 km/h (1 Bft)
21.09.2013 05:00 10,1 C 84 % 1024,4 hPa 0,0 l/m 1,4 km/h (1 Bft) O 90 7,5 C 10,2 C 3,4 km/h (1 Bft)
21.09.2013 05:05 10,1 C 84 % 1024,3 hPa 0,0 l/m 1,8 km/h (1 Bft) O-SO 112 7,5 C 10,2 C 3,1 km/h (1 Bft)
21.09.2013 05:10 10,0 C 83 % 1024,3 hPa 0,0 l/m 2,3 km/h (1 Bft) O-SO 112 7,2 C 10,2 C 2,9 km/h (1 Bft)
21.09.2013 05:15 10,0 C 83 % 1024,3 hPa 0,0 l/m 2,4 km/h (1 Bft) O 90 7,2 C 10,1 C 0,0 km/h (0 Bft)
21.09.2013 05:20 9,8 C 83 % 1024,3 hPa 0,0 l/m 1,9 km/h (1 Bft) O 90 7,1 C 9,9 C 0,0 km/h (0 Bft)
21.09.2013 05:25 9,6 C 83 % 1024,2 hPa 0,0 l/m 1,3 km/h (1 Bft) O-SO 112 6,9 C 9,7 C 0,0 km/h (0 Bft)
21.09.2013 05:30 9,3 C 84 % 1024,2 hPa 0,0 l/m 1,0 km/h (0 Bft) NO 45 6,7 C 9,4 C 3,2 km/h (1 Bft)
21.09.2013 05:35 9,4 C 84 % 1024,2 hPa 0,0 l/m 1,3 km/h (1 Bft) NO 45 6,8 C 9,3 C 0,0 km/h (0 Bft)
21.09.2013 05:40 9,4 C 84 % 1024,2 hPa 0,0 l/m 0,8 km/h (0 Bft) O-NO 67 6,8 C 9,3 C 1,8 km/h (1 Bft)
21.09.2013 05:45 9,5 C 84 % 1024,2 hPa 0,0 l/m 0,6 km/h (0 Bft) O-SO 112 6,9 C 9,3 C 2,1 km/h (1 Bft)
21.09.2013 05:50 9,6 C 84 % 1024,2 hPa 0,0 l/m 0,8 km/h (0 Bft) O-SO 112 7,0 C 9,4 C 0,0 km/h (0 Bft)
21.09.2013 05:55 9,5 C 84 % 1024,2 hPa 0,0 l/m 0,6 km/h (0 Bft) NO 45 6,9 C 9,4 C 0,0 km/h (0 Bft)
21.09.2013 06:00 9,4 C 84 % 1024,2 hPa 0,0 l/m 0,2 km/h (0 Bft) N 360 6,8 C 9,3 C 0,0 km/h (0 Bft)
21.09.2013 06:05 9,3 C 85 % 1024,5 hPa 0,0 l/m 0,0 km/h (0 Bft) W-SW 247 6,9 C 9,3 C 0,0 km/h (0 Bft)
21.09.2013 06:10 9,2 C 85 % 1024,5 hPa 0,0 l/m 0,0 km/h (0 Bft) NO 45 6,8 C 9,1 C 0,0 km/h (0 Bft)
21.09.2013 06:15 9,2 C 85 % 1024,5 hPa 0,0 l/m 0,0 km/h (0 Bft) NO 45 6,8 C 9,1 C 0,0 km/h (0 Bft)
21.09.2013 06:20 9,2 C 86 % 1024,5 hPa 0,0 l/m 0,2 km/h (0 Bft) O-SO 112 7,0 C 9,1 C 1,9 km/h (1 Bft)
21.09.2013 06:25 9,2 C 86 % 1024,7 hPa 0,0 l/m 0,5 km/h (0 Bft) NO 45 7,0 C 9,1 C 2,1 km/h (1 Bft)
21.09.2013 06:30 9,2 C 86 % 1024,7 hPa 0,0 l/m 0,5 km/h (0 Bft) SO 135 7,0 C 9,2 C 0,0 km/h (0 Bft)
21.09.2013 06:35 9,2 C 86 % 1024,7 hPa 0,0 l/m 0,0 km/h (0 Bft) NO 45 7,0 C 9,2 C 0,0 km/h (0 Bft)
21.09.2013 06:40 9,3 C 86 % 1024,7 hPa 0,0 l/m 0,0 km/h (0 Bft) NO 45 7,1 C 9,3 C 0,0 km/h (0 Bft)
21.09.2013 06:45 9,3 C 86 % 1024,9 hPa 0,0 l/m 0,0 km/h (0 Bft) NO 45 7,1 C 9,3 C 0,0 km/h (0 Bft)
21.09.2013 06:50 9,3 C 87 % 1024,9 hPa 0,0 l/m 0,2 km/h (0 Bft) O 90 7,2 C 9,3 C 0,0 km/h (0 Bft)
21.09.2013 06:55 9,4 C 87 % 1024,9 hPa 0,0 l/m 0,2 km/h (0 Bft) N-NW 337 7,3 C 9,4 C 0,0 km/h (0 Bft)
21.09.2013 07:00 9,4 C 87 % 1024,9 hPa 0,0 l/m 0,0 km/h (0 Bft) O 90 7,3 C 9,4 C 0,0 km/h (0 Bft)
21.09.2013 07:05 9,4 C 87 % 1025,3 hPa 0,0 l/m 0,0 km/h (0 Bft) O 90 7,3 C 9,4 C 0,0 km/h (0 Bft)
21.09.2013 07:10 9,6 C 87 % 1025,3 hPa 0,0 l/m 0,3 km/h (0 Bft) NO 45 7,5 C 9,6 C 1,9 km/h (1 Bft)
21.09.2013 07:15 9,6 C 87 % 1025,3 hPa 0,0 l/m 0,3 km/h (0 Bft) O 90 7,5 C 9,6 C 0,0 km/h (0 Bft)
21.09.2013 07:20 9,7 C 87 % 1025,3 hPa 0,0 l/m 0,3 km/h (0 Bft) O 90 7,6 C 9,6 C 0,0 km/h (0 Bft)
21.09.2013 07:25 9,8 C 87 % 1025,5 hPa 0,0 l/m 0,2 km/h (0 Bft) O-SO 112 7,7 C 9,7 C 0,0 km/h (0 Bft)
21.09.2013 07:30 9,9 C 87 % 1025,5 hPa 0,0 l/m 0,5 km/h (0 Bft) O-SO 112 7,8 C 10,0 C 0,0 km/h (0 Bft)
21.09.2013 07:35 9,8 C 87 % 1025,5 hPa 0,0 l/m 0,5 km/h (0 Bft) O-SO 112 7,7 C 10,0 C 0,0 km/h (0 Bft)
21.09.2013 07:40 10,0 C 86 % 1025,5 hPa 0,0 l/m 0,2 km/h (0 Bft) S 180 7,8 C 10,1 C 0,0 km/h (0 Bft)
21.09.2013 07:45 10,0 C 86 % 1025,8 hPa 0,0 l/m 0,2 km/h (0 Bft) O 90 7,8 C 10,1 C 0,0 km/h (0 Bft)
21.09.2013 07:50 10,1 C 86 % 1025,8 hPa 0,0 l/m 0,2 km/h (0 Bft) O 90 7,9 C 10,3 C 1,6 km/h (1 Bft)
21.09.2013 07:55 10,2 C 86 % 1025,8 hPa 0,0 l/m 0,2 km/h (0 Bft) S 180 8,0 C 10,4 C 0,0 km/h (0 Bft)
21.09.2013 08:00 10,3 C 86 % 1025,8 hPa 0,0 l/m 0,5 km/h (0 Bft) SO 135 8,1 C 10,5 C 1,9 km/h (1 Bft)
21.09.2013 08:05 10,3 C 86 % 1025,7 hPa 0,0 l/m 0,8 km/h (0 Bft) SO 135 8,1 C 10,5 C 2,6 km/h (1 Bft)
21.09.2013 08:10 10,5 C 86 % 1025,7 hPa 0,0 l/m 1,6 km/h (1 Bft) S 180 8,3 C 10,7 C 1,9 km/h (1 Bft)
21.09.2013 08:15 10,6 C 86 % 1025,7 hPa 0,0 l/m 2,3 km/h (1 Bft) O 90 8,4 C 10,9 C 2,3 km/h (1 Bft)
21.09.2013 08:20 10,7 C 85 % 1025,7 hPa 0,0 l/m 2,3 km/h (1 Bft) S 180 8,3 C 11,0 C 1,8 km/h (1 Bft)
21.09.2013 08:25 10,7 C 85 % 1025,9 hPa 0,0 l/m 2,4 km/h (1 Bft) S-SO 157 8,3 C 11,1 C 3,4 km/h (1 Bft)
21.09.2013 08:30 10,9 C 85 % 1025,9 hPa 0,0 l/m 1,3 km/h (1 Bft) S-SO 157 8,5 C 11,2 C 2,4 km/h (1 Bft)
21.09.2013 08:35 11,0 C 85 % 1025,9 hPa 0,0 l/m 1,0 km/h (0 Bft) S 180 8,6 C 11,3 C 2,3 km/h (1 Bft)
21.09.2013 08:40 11,2 C 84 % 1025,9 hPa 0,0 l/m 1,6 km/h (1 Bft) SO 135 8,6 C 11,6 C 1,6 km/h (1 Bft)
21.09.2013 08:45 11,3 C 84 % 1025,9 hPa 0,0 l/m 1,6 km/h (1 Bft) S 180 8,7 C 11,7 C 3,7 km/h (1 Bft)
21.09.2013 08:50 11,5 C 84 % 1025,9 hPa 0,0 l/m 1,6 km/h (1 Bft) SO 135 8,9 C 11,9 C 1,6 km/h (1 Bft)
21.09.2013 08:55 11,5 C 83 % 1025,9 hPa 0,0 l/m 2,4 km/h (1 Bft) SO 135 8,7 C 12,0 C 1,9 km/h (1 Bft)
21.09.2013 09:00 11,8 C 83 % 1025,9 hPa 0,0 l/m 3,2 km/h (1 Bft) S 180 9,0 C 12,1 C 6,0 km/h (2 Bft)
21.09.2013 09:05 11,9 C 82 % 1025,8 hPa 0,0 l/m 3,4 km/h (1 Bft) S 180 8,9 C 12,2 C 3,4 km/h (1 Bft)
21.09.2013 09:10 12,1 C 80 % 1025,8 hPa 0,0 l/m 4,7 km/h (1 Bft) S 180 8,8 C 12,4 C 3,5 km/h (1 Bft)
21.09.2013 09:15 12,2 C 81 % 1025,8 hPa 0,0 l/m 4,0 km/h (1 Bft) S 180 9,0 C 12,5 C 3,7 km/h (1 Bft)
21.09.2013 09:20 12,2 C 79 % 1025,8 hPa 0,0 l/m 3,1 km/h (1 Bft) O-SO 112 8,7 C 12,7 C 4,3 km/h (1 Bft)
21.09.2013 09:25 12,3 C 79 % 1026,1 hPa 0,0 l/m 2,9 km/h (1 Bft) S-SO 157 8,8 C 12,8 C 6,1 km/h (2 Bft)
21.09.2013 09:30 13,8 C 77 % 1026,1 hPa 0,0 l/m 3,2 km/h (1 Bft) S 180 9,8 C 13,2 C 4,3 km/h (1 Bft)
21.09.2013 09:35 14,7 C 76 % 1026,1 hPa 0,0 l/m 3,1 km/h (1 Bft) S 180 10,5 C 13,7 C 4,8 km/h (1 Bft)
21.09.2013 09:40 13,9 C 73 % 1026,1 hPa 0,0 l/m 3,4 km/h (1 Bft) S 180 9,1 C 14,8 C 4,3 km/h (1 Bft)
21.09.2013 09:45 13,5 C 73 % 1026,1 hPa 0,0 l/m 3,2 km/h (1 Bft) S-SW 202 8,8 C 14,7 C 3,2 km/h (1 Bft)
21.09.2013 09:50 13,4 C 73 % 1026,1 hPa 0,0 l/m 3,1 km/h (1 Bft) S-SW 202 8,7 C 14,2 C 3,2 km/h (1 Bft)
21.09.2013 09:55 13,5 C 73 % 1026,1 hPa 0,0 l/m 2,6 km/h (1 Bft) S-SW 202 8,8 C 14,2 C 3,2 km/h (1 Bft)
21.09.2013 10:00 13,6 C 73 % 1026,1 hPa 0,0 l/m 3,1 km/h (1 Bft) S-SW 202 8,9 C 14,4 C 1,9 km/h (1 Bft)
21.09.2013 10:05 13,8 C 73 % 1026,2 hPa 0,0 l/m 3,1 km/h (1 Bft) S-SO 157 9,0 C 14,4 C 0,0 km/h (0 Bft)
21.09.2013 10:10 13,5 C 72 % 1026,2 hPa 0,0 l/m 2,7 km/h (1 Bft) S-SO 157 8,6 C 14,4 C 2,1 km/h (1 Bft)
21.09.2013 10:15 13,4 C 72 % 1026,2 hPa 0,0 l/m 2,6 km/h (1 Bft) S 180 8,5 C 14,3 C 2,9 km/h (1 Bft)
21.09.2013 10:20 13,7 C 72 % 1026,2 hPa 0,0 l/m 2,6 km/h (1 Bft) S-SO 157 8,7 C 14,4 C 1,8 km/h (1 Bft)
21.09.2013 10:25 13,8 C 72 % 1026,7 hPa 0,0 l/m 2,4 km/h (1 Bft) S-SW 202 8,8 C 14,4 C 0,0 km/h (0 Bft)
21.09.2013 10:30 14,2 C 70 % 1026,7 hPa 0,0 l/m 1,9 km/h (1 Bft) S-SW 202 8,8 C 14,9 C 2,6 km/h (1 Bft)
21.09.2013 10:35 14,1 C 69 % 1026,7 hPa 0,0 l/m 2,3 km/h (1 Bft) S-SW 202 8,5 C 15,1 C 2,9 km/h (1 Bft)
21.09.2013 10:40 14,1 C 67 % 1026,7 hPa 0,0 l/m 2,7 km/h (1 Bft) S 180 8,1 C 15,2 C 4,5 km/h (1 Bft)
21.09.2013 10:45 14,2 C 68 % 1027,0 hPa 0,0 l/m 2,7 km/h (1 Bft) S-SW 202 8,4 C 15,2 C 3,2 km/h (1 Bft)
21.09.2013 10:50 14,8 C 66 % 1027,0 hPa 0,0 l/m 3,1 km/h (1 Bft) S-SO 157 8,5 C 15,6 C 2,6 km/h (1 Bft)
21.09.2013 10:55 15,0 C 66 % 1027,0 hPa 0,0 l/m 3,1 km/h (1 Bft) S 180 8,7 C 15,8 C 2,7 km/h (1 Bft)
21.09.2013 11:00 15,1 C 65 % 1027,0 hPa 0,0 l/m 3,2 km/h (1 Bft) S-SW 202 8,6 C 16,0 C 5,1 km/h (1 Bft)
21.09.2013 11:05 15,1 C 65 % 1027,6 hPa 0,0 l/m 3,4 km/h (1 Bft) S-SO 157 8,6 C 16,1 C 5,3 km/h (1 Bft)
21.09.2013 11:10 15,3 C 65 % 1027,6 hPa 0,0 l/m 2,6 km/h (1 Bft) SO 135 8,8 C 16,5 C 1,9 km/h (1 Bft)
21.09.2013 11:15 15,3 C 63 % 1027,6 hPa 0,0 l/m 2,4 km/h (1 Bft) W-SW 247 8,3 C 16,6 C 4,5 km/h (1 Bft)
21.09.2013 11:20 15,0 C 62 % 1027,6 hPa 0,0 l/m 3,2 km/h (1 Bft) W-SW 247 7,8 C 16,3 C 2,6 km/h (1 Bft)
21.09.2013 11:25 15,0 C 62 % 1027,4 hPa 0,0 l/m 3,7 km/h (1 Bft) W-SW 247 7,8 C 16,3 C 6,3 km/h (2 Bft)
21.09.2013 11:30 15,2 C 61 % 1027,4 hPa 0,0 l/m 3,2 km/h (1 Bft) S-SO 157 7,7 C 16,4 C 8,0 km/h (2 Bft)
21.09.2013 11:35 15,3 C 60 % 1027,4 hPa 0,0 l/m 3,4 km/h (1 Bft) S 180 7,6 C 16,5 C 4,5 km/h (1 Bft)
21.09.2013 11:40 16,0 C 59 % 1027,4 hPa 0,0 l/m 3,9 km/h (1 Bft) S-SW 202 8,0 C 16,7 C 2,7 km/h (1 Bft)
21.09.2013 11:45 16,1 C 59 % 1027,5 hPa 0,0 l/m 3,2 km/h (1 Bft) S-SO 157 8,1 C 17,1 C 0,0 km/h (0 Bft)
21.09.2013 11:50 17,6 C 53 % 1027,5 hPa 0,0 l/m 2,9 km/h (1 Bft) SO 135 7,9 C 18,8 C 6,1 km/h (2 Bft)
21.09.2013 11:55 16,9 C 54 % 1027,5 hPa 0,0 l/m 3,5 km/h (1 Bft) S 180 7,5 C 19,0 C 7,9 km/h (2 Bft)
21.09.2013 12:00 18,1 C 54 % 1027,5 hPa 0,0 l/m 4,2 km/h (1 Bft) O-SO 112 8,6 C 18,8 C 3,7 km/h (1 Bft)
21.09.2013 12:05 18,6 C 52 % 1027,4 hPa 0,0 l/m 4,2 km/h (1 Bft) S-SO 157 8,5 C 19,1 C 5,5 km/h (1 Bft)
21.09.2013 12:10 18,0 C 48 % 1027,4 hPa 0,0 l/m 5,0 km/h (1 Bft) S 180 6,8 C 19,8 C 5,5 km/h (1 Bft)
21.09.2013 12:15 18,7 C 51 % 1027,4 hPa 0,0 l/m 5,0 km/h (1 Bft) S 180 8,4 C 19,5 C 6,0 km/h (2 Bft)
21.09.2013 12:20 18,3 C 51 % 1027,4 hPa 0,0 l/m 3,5 km/h (1 Bft) S-SW 202 8,0 C 19,4 C 2,3 km/h (1 Bft)
21.09.2013 12:25 18,1 C 51 % 1027,6 hPa 0,0 l/m 2,9 km/h (1 Bft) SO 135 7,8 C 19,6 C 3,9 km/h (1 Bft)
21.09.2013 12:30 19,8 C 48 % 1027,6 hPa 0,0 l/m 3,2 km/h (1 Bft) SW 225 8,5 C 20,8 C 1,6 km/h (1 Bft)
21.09.2013 12:35 20,0 C 47 % 1027,6 hPa 0,0 l/m 3,7 km/h (1 Bft) W 270 8,3 C 21,7 C 4,0 km/h (1 Bft)
21.09.2013 12:40 20,0 C 46 % 1027,6 hPa 0,0 l/m 3,5 km/h (1 Bft) S-SW 202 8,0 C 22,4 C 4,7 km/h (1 Bft)
21.09.2013 12:45 20,1 C 46 % 1027,8 hPa 0,0 l/m 4,2 km/h (1 Bft) W-SW 247 8,1 C 22,6 C 10,8 km/h (2 Bft)
21.09.2013 12:50 17,4 C 50 % 1027,8 hPa 0,0 l/m 4,7 km/h (1 Bft) W-SW 247 6,9 C 21,4 C 6,1 km/h (2 Bft)
21.09.2013 12:55 16,9 C 53 % 1027,8 hPa 0,0 l/m 5,3 km/h (1 Bft) W-SW 247 7,3 C 19,7 C 5,8 km/h (2 Bft)
21.09.2013 13:00 16,4 C 55 % 1027,8 hPa 0,0 l/m 5,6 km/h (1 Bft) W-SW 247 7,3 C 18,9 C 7,7 km/h (2 Bft)
21.09.2013 13:05 16,0 C 55 % 1027,8 hPa 0,0 l/m 5,8 km/h (2 Bft) W 270 7,0 C 18,7 C 4,2 km/h (1 Bft)
21.09.2013 13:10 16,6 C 59 % 1027,8 hPa 0,0 l/m 4,0 km/h (1 Bft) S 180 8,6 C 17,6 C 5,3 km/h (1 Bft)
21.09.2013 13:15 17,1 C 57 % 1027,8 hPa 0,0 l/m 4,2 km/h (1 Bft) SW 225 8,5 C 19,0 C 2,6 km/h (1 Bft)
21.09.2013 13:20 17,4 C 55 % 1027,8 hPa 0,0 l/m 4,2 km/h (1 Bft) W-NW 292 8,3 C 20,9 C 6,1 km/h (2 Bft)
21.09.2013 13:25 17,7 C 55 % 1028,1 hPa 0,0 l/m 4,2 km/h (1 Bft) W 270 8,5 C 21,3 C 6,8 km/h (2 Bft)
21.09.2013 13:30 17,8 C 54 % 1028,1 hPa 0,0 l/m 4,7 km/h (1 Bft) SO 135 8,4 C 21,2 C 1,9 km/h (1 Bft)
21.09.2013 13:35 17,9 C 50 % 1028,1 hPa 0,0 l/m 5,0 km/h (1 Bft) W 270 7,3 C 21,7 C 9,8 km/h (2 Bft)
21.09.2013 13:40 17,5 C 53 % 1028,1 hPa 0,0 l/m 5,8 km/h (2 Bft) SW 225 7,8 C 21,0 C 6,1 km/h (2 Bft)
21.09.2013 13:45 17,8 C 53 % 1028,1 hPa 0,0 l/m 6,0 km/h (2 Bft) W 270 8,1 C 20,3 C 6,0 km/h (2 Bft)
21.09.2013 13:50 17,2 C 50 % 1028,1 hPa 0,0 l/m 5,0 km/h (1 Bft) W 270 6,7 C 20,4 C 3,4 km/h (1 Bft)
21.09.2013 13:55 17,7 C 52 % 1028,1 hPa 0,0 l/m 4,7 km/h (1 Bft) W 270 7,7 C 20,1 C 3,2 km/h (1 Bft)
21.09.2013 14:00 17,4 C 50 % 1028,1 hPa 0,0 l/m 4,2 km/h (1 Bft) W-SW 247 6,9 C 20,7 C 6,4 km/h (2 Bft)
21.09.2013 14:05 17,7 C 52 % 1028,2 hPa 0,0 l/m 3,7 km/h (1 Bft) W-SW 247 7,7 C 20,5 C 1,9 km/h (1 Bft)
21.09.2013 14:10 18,7 C 49 % 1028,2 hPa 0,0 l/m 3,7 km/h (1 Bft) W 270 7,8 C 21,5 C 7,4 km/h (2 Bft)
21.09.2013 14:15 18,6 C 49 % 1028,2 hPa 0,0 l/m 4,2 km/h (1 Bft) SW 225 7,7 C 21,9 C 8,5 km/h (2 Bft)
21.09.2013 14:20 18,6 C 50 % 1028,2 hPa 0,0 l/m 6,8 km/h (2 Bft) W-SW 247 8,0 C 21,4 C 12,4 km/h (3 Bft)
21.09.2013 14:25 18,6 C 50 % 1028,1 hPa 0,0 l/m 6,8 km/h (2 Bft) N-NO 22 8,0 C 21,2 C 6,6 km/h (2 Bft)
21.09.2013 14:30 17,8 C 50 % 1028,1 hPa 0,0 l/m 6,4 km/h (2 Bft) W-NW 292 7,2 C 20,8 C 5,1 km/h (1 Bft)
21.09.2013 14:35 17,7 C 50 % 1028,1 hPa 0,0 l/m 5,1 km/h (1 Bft) W-NW 292 7,1 C 20,8 C 4,2 km/h (1 Bft)
21.09.2013 14:40 17,7 C 50 % 1028,1 hPa 0,0 l/m 4,3 km/h (1 Bft) S 180 7,1 C 21,3 C 2,4 km/h (1 Bft)
21.09.2013 14:45 17,5 C 50 % 1028,2 hPa 0,0 l/m 3,9 km/h (1 Bft) S-SW 202 7,0 C 21,4 C 3,5 km/h (1 Bft)
21.09.2013 14:50 17,0 C 55 % 1028,2 hPa 0,0 l/m 3,9 km/h (1 Bft) SW 225 7,9 C 22,0 C 7,1 km/h (2 Bft)
21.09.2013 14:55 16,7 C 54 % 1028,2 hPa 0,0 l/m 4,3 km/h (1 Bft) W-SW 247 7,3 C 21,8 C 7,2 km/h (2 Bft)
21.09.2013 15:00 16,6 C 55 % 1028,2 hPa 0,0 l/m 4,3 km/h (1 Bft) W-NW 292 7,5 C 22,2 C 6,1 km/h (2 Bft)
21.09.2013 15:05 16,6 C 56 % 1028,2 hPa 0,0 l/m 4,0 km/h (1 Bft) W-NW 292 7,8 C 22,1 C 4,3 km/h (1 Bft)
21.09.2013 15:10 16,6 C 55 % 1028,2 hPa 0,0 l/m 5,0 km/h (1 Bft) W 270 7,5 C 22,1 C 4,8 km/h (1 Bft)
21.09.2013 15:15 16,8 C 56 % 1028,2 hPa 0,0 l/m 5,1 km/h (1 Bft) W-SW 247 8,0 C 22,0 C 7,4 km/h (2 Bft)
21.09.2013 15:20 16,6 C 56 % 1028,2 hPa 0,0 l/m 5,1 km/h (1 Bft) W-SW 247 7,8 C 21,9 C 6,0 km/h (2 Bft)
21.09.2013 15:25 16,5 C 54 % 1028,3 hPa 0,0 l/m 5,3 km/h (1 Bft) W-SW 247 7,2 C 21,8 C 4,2 km/h (1 Bft)
21.09.2013 15:30 15,8 C 55 % 1028,3 hPa 0,0 l/m 2,7 km/h (1 Bft) N-NW 337 6,8 C 21,2 C 5,5 km/h (1 Bft)
21.09.2013 15:35 15,9 C 58 % 1028,3 hPa 0,0 l/m 2,1 km/h (1 Bft) NO 45 7,6 C 21,6 C 5,0 km/h (1 Bft)
21.09.2013 15:40 16,7 C 57 % 1028,3 hPa 0,0 l/m 4,7 km/h (1 Bft) W-NW 292 8,1 C 22,2 C 11,4 km/h (2 Bft)
21.09.2013 15:45 16,8 C 58 % 1028,4 hPa 0,0 l/m 5,1 km/h (1 Bft) W 270 8,5 C 22,0 C 6,3 km/h (2 Bft)
21.09.2013 15:50 16,9 C 57 % 1028,4 hPa 0,0 l/m 6,1 km/h (2 Bft) W-NW 292 8,3 C 22,1 C 5,0 km/h (1 Bft)
21.09.2013 15:55 16,6 C 55 % 1028,4 hPa 0,0 l/m 5,8 km/h (2 Bft) W 270 7,5 C 21,6 C 6,3 km/h (2 Bft)
21.09.2013 16:00 16,9 C 56 % 1028,4 hPa 0,0 l/m 5,3 km/h (1 Bft) W-SW 247 8,1 C 21,7 C 7,2 km/h (2 Bft)
21.09.2013 16:05 17,0 C 56 % 1028,4 hPa 0,0 l/m 5,0 km/h (1 Bft) S-SW 202 8,2 C 21,9 C 0,0 km/h (0 Bft)
21.09.2013 16:10 16,5 C 59 % 1028,4 hPa 0,0 l/m 5,1 km/h (1 Bft) W 270 8,5 C 22,2 C 10,6 km/h (2 Bft)
21.09.2013 16:15 16,4 C 59 % 1028,4 hPa 0,0 l/m 5,6 km/h (1 Bft) W 270 8,4 C 20,8 C 3,9 km/h (1 Bft)
21.09.2013 16:20 15,9 C 61 % 1028,4 hPa 0,0 l/m 5,5 km/h (1 Bft) N-NW 337 8,4 C 19,1 C 6,8 km/h (2 Bft)
21.09.2013 16:25 15,9 C 62 % 1028,1 hPa 0,0 l/m 5,0 km/h (1 Bft) N-NW 337 8,6 C 18,7 C 4,5 km/h (1 Bft)
21.09.2013 16:30 16,0 C 61 % 1028,1 hPa 0,0 l/m 4,7 km/h (1 Bft) N-NW 337 8,5 C 17,8 C 4,3 km/h (1 Bft)
21.09.2013 16:35 16,1 C 60 % 1028,1 hPa 0,0 l/m 4,8 km/h (1 Bft) S-SO 157 8,3 C 18,4 C 8,4 km/h (2 Bft)
21.09.2013 16:40 15,9 C 59 % 1028,1 hPa 0,0 l/m 4,8 km/h (1 Bft) N-NW 337 7,9 C 18,6 C 3,7 km/h (1 Bft)
21.09.2013 16:45 15,9 C 59 % 1027,8 hPa 0,0 l/m 4,7 km/h (1 Bft) N-NW 337 7,9 C 18,8 C 2,1 km/h (1 Bft)
21.09.2013 16:50 15,3 C 62 % 1027,8 hPa 0,0 l/m 3,9 km/h (1 Bft) W-NW 292 8,1 C 18,7 C 3,1 km/h (1 Bft)
21.09.2013 16:55 15,0 C 64 % 1027,8 hPa 0,0 l/m 3,1 km/h (1 Bft) NO 45 8,2 C 18,0 C 5,5 km/h (1 Bft)
21.09.2013 17:00 15,1 C 64 % 1027,8 hPa 0,0 l/m 2,7 km/h (1 Bft) N-NW 337 8,3 C 17,4 C 5,0 km/h (1 Bft)
21.09.2013 17:05 15,2 C 64 % 1027,9 hPa 0,0 l/m 2,7 km/h (1 Bft) N 360 8,4 C 17,3 C 0,0 km/h (0 Bft)
21.09.2013 17:10 15,3 C 63 % 1027,9 hPa 0,0 l/m 2,4 km/h (1 Bft) W-NW 292 8,3 C 17,1 C 5,5 km/h (1 Bft)
21.09.2013 17:15 15,1 C 64 % 1027,9 hPa 0,0 l/m 2,3 km/h (1 Bft) NW 315 8,3 C 16,8 C 5,0 km/h (1 Bft)
21.09.2013 17:20 14,9 C 66 % 1027,9 hPa 0,0 l/m 2,9 km/h (1 Bft) W-NW 292 8,6 C 16,4 C 4,3 km/h (1 Bft)
21.09.2013 17:25 14,9 C 66 % 1027,6 hPa 0,0 l/m 2,9 km/h (1 Bft) N-NW 337 8,6 C 16,2 C 2,7 km/h (1 Bft)
21.09.2013 17:30 14,2 C 68 % 1027,6 hPa 0,0 l/m 2,4 km/h (1 Bft) N-NO 22 8,4 C 15,7 C 4,0 km/h (1 Bft)
21.09.2013 17:35 14,0 C 68 % 1027,6 hPa 0,0 l/m 2,1 km/h (1 Bft) W 270 8,2 C 15,3 C 2,9 km/h (1 Bft)
21.09.2013 17:40 13,7 C 70 % 1027,6 hPa 0,0 l/m 1,9 km/h (1 Bft) N-NW 337 8,3 C 14,9 C 2,6 km/h (1 Bft)
21.09.2013 17:45 13,6 C 70 % 1027,7 hPa 0,0 l/m 1,6 km/h (1 Bft) NO 45 8,2 C 14,8 C 0,0 km/h (0 Bft)
21.09.2013 17:50 13,3 C 70 % 1027,7 hPa 0,0 l/m 0,8 km/h (0 Bft) O-SO 112 7,9 C 14,5 C 1,8 km/h (1 Bft)
21.09.2013 17:55 13,3 C 70 % 1027,7 hPa 0,0 l/m 0,8 km/h (0 Bft) NO 45 7,9 C 14,4 C 0,0 km/h (0 Bft)
21.09.2013 18:00 13,2 C 71 % 1027,7 hPa 0,0 l/m 1,0 km/h (0 Bft) N-NW 337 8,1 C 14,3 C 2,3 km/h (1 Bft)
21.09.2013 18:05 13,2 C 72 % 1028,0 hPa 0,0 l/m 1,0 km/h (0 Bft) NO 45 8,3 C 14,3 C 2,6 km/h (1 Bft)
21.09.2013 18:10 13,1 C 72 % 1028,0 hPa 0,0 l/m 1,1 km/h (1 Bft) O-NO 67 8,2 C 14,2 C 2,4 km/h (1 Bft)
21.09.2013 18:15 13,0 C 72 % 1028,0 hPa 0,0 l/m 1,0 km/h (0 Bft) O-NO 67 8,1 C 14,1 C 2,1 km/h (1 Bft)
21.09.2013 18:20 12,8 C 74 % 1028,0 hPa 0,0 l/m 1,6 km/h (1 Bft) NO 45 8,3 C 13,9 C 3,1 km/h (1 Bft)
21.09.2013 18:25 12,7 C 74 % 1027,8 hPa 0,0 l/m 1,9 km/h (1 Bft) NO 45 8,2 C 13,9 C 2,9 km/h (1 Bft)
21.09.2013 18:30 12,5 C 75 % 1027,8 hPa 0,0 l/m 2,3 km/h (1 Bft) O-NO 67 8,2 C 13,8 C 2,7 km/h (1 Bft)
21.09.2013 18:35 12,5 C 75 % 1027,8 hPa 0,0 l/m 2,1 km/h (1 Bft) O 90 8,2 C 13,6 C 1,6 km/h (1 Bft)
21.09.2013 18:40 12,2 C 75 % 1027,8 hPa 0,0 l/m 1,3 km/h (1 Bft) O-NO 67 7,9 C 13,2 C 0,0 km/h (0 Bft)
21.09.2013 18:45 12,1 C 75 % 1028,0 hPa 0,0 l/m 1,0 km/h (0 Bft) O-NO 67 7,8 C 13,1 C 0,0 km/h (0 Bft)
21.09.2013 18:50 11,7 C 76 % 1028,0 hPa 0,0 l/m 0,8 km/h (0 Bft) O-NO 67 7,6 C 12,4 C 2,6 km/h (1 Bft)
21.09.2013 18:55 11,6 C 77 % 1028,0 hPa 0,0 l/m 1,6 km/h (1 Bft) O 90 7,7 C 12,0 C 1,8 km/h (1 Bft)
21.09.2013 19:00 11,4 C 78 % 1028,0 hPa 0,0 l/m 2,3 km/h (1 Bft) O 90 7,7 C 11,7 C 2,4 km/h (1 Bft)
21.09.2013 19:05 11,4 C 78 % 1027,8 hPa 0,0 l/m 2,4 km/h (1 Bft) O-NO 67 7,7 C 11,7 C 2,9 km/h (1 Bft)
21.09.2013 19:10 11,3 C 79 % 1027,8 hPa 0,0 l/m 2,7 km/h (1 Bft) NO 45 7,8 C 11,4 C 3,1 km/h (1 Bft)
21.09.2013 19:15 11,1 C 79 % 1027,8 hPa 0,0 l/m 2,6 km/h (1 Bft) NO 45 7,6 C 11,3 C 2,1 km/h (1 Bft)
21.09.2013 19:20 10,7 C 80 % 1027,8 hPa 0,0 l/m 2,4 km/h (1 Bft) NO 45 7,4 C 10,8 C 2,9 km/h (1 Bft)
21.09.2013 19:25 10,6 C 81 % 1028,1 hPa 0,0 l/m 2,3 km/h (1 Bft) NO 45 7,5 C 10,7 C 3,2 km/h (1 Bft)
21.09.2013 19:30 10,4 C 81 % 1028,1 hPa 0,0 l/m 2,1 km/h (1 Bft) O 90 7,3 C 10,3 C 0,0 km/h (0 Bft)
21.09.2013 19:35 10,0 C 81 % 1028,1 hPa 0,0 l/m 1,1 km/h (1 Bft) O 90 6,9 C 10,1 C 0,0 km/h (0 Bft)
21.09.2013 19:40 10,0 C 82 % 1028,1 hPa 0,0 l/m 1,1 km/h (1 Bft) O-NO 67 7,1 C 9,9 C 4,0 km/h (1 Bft)
21.09.2013 19:45 10,0 C 82 % 1028,1 hPa 0,0 l/m 1,6 km/h (1 Bft) O-NO 67 7,1 C 9,9 C 3,9 km/h (1 Bft)
21.09.2013 19:50 9,8 C 83 % 1028,1 hPa 0,0 l/m 3,1 km/h (1 Bft) O 90 7,1 C 9,8 C 4,0 km/h (1 Bft)
21.09.2013 19:55 9,8 C 84 % 1028,1 hPa 0,0 l/m 2,7 km/h (1 Bft) NO 45 7,2 C 9,7 C 2,1 km/h (1 Bft)
21.09.2013 20:00 10,0 C 85 % 1028,1 hPa 0,0 l/m 2,3 km/h (1 Bft) NO 45 7,6 C 9,7 C 0,0 km/h (0 Bft)
21.09.2013 20:05 10,0 C 85 % 1028,1 hPa 0,0 l/m 1,9 km/h (1 Bft) NO 45 7,6 C 9,7 C 2,6 km/h (1 Bft)
21.09.2013 20:10 10,0 C 85 % 1028,1 hPa 0,0 l/m 1,9 km/h (1 Bft) O 90 7,6 C 9,7 C 3,4 km/h (1 Bft)
21.09.2013 20:15 10,0 C 85 % 1028,1 hPa 0,0 l/m 3,1 km/h (1 Bft) O 90 7,6 C 9,8 C 3,7 km/h (1 Bft)
21.09.2013 20:20 9,9 C 85 % 1028,1 hPa 0,0 l/m 2,9 km/h (1 Bft) O 90 7,5 C 9,7 C 2,4 km/h (1 Bft)
21.09.2013 20:25 9,8 C 85 % 1028,4 hPa 0,0 l/m 2,7 km/h (1 Bft) O 90 7,4 C 9,7 C 4,0 km/h (1 Bft)
21.09.2013 20:30 9,4 C 86 % 1028,4 hPa 0,0 l/m 2,1 km/h (1 Bft) O 90 7,2 C 9,5 C 2,4 km/h (1 Bft)
21.09.2013 20:35 9,5 C 86 % 1028,4 hPa 0,0 l/m 2,1 km/h (1 Bft) O-NO 67 7,3 C 9,4 C 4,2 km/h (1 Bft)
21.09.2013 20:40 9,3 C 86 % 1028,4 hPa 0,0 l/m 3,4 km/h (1 Bft) O-NO 67 7,1 C 9,3 C 4,8 km/h (1 Bft)
21.09.2013 20:45 9,3 C 86 % 1028,4 hPa 0,0 l/m 3,7 km/h (1 Bft) NO 45 7,1 C 9,3 C 4,0 km/h (1 Bft)
21.09.2013 20:50 9,0 C 87 % 1028,3 hPa 0,0 l/m 2,6 km/h (1 Bft) NO 45 7,0 C 9,2 C 2,7 km/h (1 Bft)
21.09.2013 20:55 9,0 C 87 % 1028,3 hPa 0,0 l/m 1,9 km/h (1 Bft) O-SO 112 7,0 C 9,0 C 3,5 km/h (1 Bft)
21.09.2013 21:00 9,0 C 87 % 1028,3 hPa 0,0 l/m 2,1 km/h (1 Bft) NO 45 7,0 C 8,9 C 3,1 km/h (1 Bft)
21.09.2013 21:05 9,1 C 87 % 1028,3 hPa 0,0 l/m 2,4 km/h (1 Bft) O 90 7,1 C 8,9 C 3,4 km/h (1 Bft)
21.09.2013 21:10 9,0 C 88 % 1028,5 hPa 0,0 l/m 1,8 km/h (1 Bft) O 90 7,1 C 8,8 C 2,3 km/h (1 Bft)
21.09.2013 21:15 9,0 C 88 % 1028,5 hPa 0,0 l/m 1,9 km/h (1 Bft) O 90 7,1 C 8,8 C 3,5 km/h (1 Bft)
21.09.2013 21:20 8,8 C 88 % 1028,5 hPa 0,0 l/m 2,9 km/h (1 Bft) O 90 6,9 C 8,8 C 2,3 km/h (1 Bft)
21.09.2013 21:25 8,8 C 88 % 1028,5 hPa 0,0 l/m 2,9 km/h (1 Bft) O 90 6,9 C 8,8 C 3,4 km/h (1 Bft)
21.09.2013 21:30 8,7 C 88 % 1028,6 hPa 0,0 l/m 1,9 km/h (1 Bft) O 90 6,8 C 8,7 C 2,6 km/h (1 Bft)
21.09.2013 21:35 8,9 C 88 % 1028,6 hPa 0,0 l/m 1,8 km/h (1 Bft) O 90 7,0 C 8,8 C 1,9 km/h (1 Bft)
21.09.2013 21:40 8,7 C 88 % 1028,6 hPa 0,0 l/m 1,0 km/h (0 Bft) O-SO 112 6,8 C 8,7 C 0,0 km/h (0 Bft)
21.09.2013 21:45 8,6 C 88 % 1028,6 hPa 0,0 l/m 0,6 km/h (0 Bft) O 90 6,7 C 8,6 C 0,0 km/h (0 Bft)
21.09.2013 21:50 8,2 C 88 % 1028,4 hPa 0,0 l/m 0,0 km/h (0 Bft) O-SO 112 6,3 C 8,3 C 0,0 km/h (0 Bft)
21.09.2013 21:55 8,1 C 88 % 1028,4 hPa 0,0 l/m 0,3 km/h (0 Bft) O 90 6,2 C 8,1 C 0,0 km/h (0 Bft)
21.09.2013 22:00 7,9 C 88 % 1028,4 hPa 0,0 l/m 0,6 km/h (0 Bft) O 90 6,0 C 7,9 C 3,4 km/h (1 Bft)
21.09.2013 22:05 7,8 C 88 % 1028,4 hPa 0,0 l/m 0,6 km/h (0 Bft) SO 135 5,9 C 7,9 C 0,0 km/h (0 Bft)
21.09.2013 22:10 7,6 C 89 % 1028,2 hPa 0,0 l/m 0,3 km/h (0 Bft) O 90 5,9 C 7,8 C 0,0 km/h (0 Bft)
21.09.2013 22:15 7,4 C 89 % 1028,2 hPa 0,0 l/m 0,0 km/h (0 Bft) O 90 5,7 C 7,6 C 0,0 km/h (0 Bft)
21.09.2013 22:20 7,3 C 89 % 1028,2 hPa 0,0 l/m 0,0 km/h (0 Bft) O 90 5,6 C 7,3 C 0,0 km/h (0 Bft)
21.09.2013 22:25 7,3 C 89 % 1028,2 hPa 0,0 l/m 0,0 km/h (0 Bft) O 90 5,6 C 7,2 C 0,0 km/h (0 Bft)
21.09.2013 22:30 7,2 C 89 % 1028,2 hPa 0,0 l/m 0,0 km/h (0 Bft) O 90 5,5 C 6,9 C 0,0 km/h (0 Bft)
21.09.2013 22:35 7,0 C 89 % 1028,2 hPa 0,0 l/m 0,0 km/h (0 Bft) O 90 5,3 C 6,8 C 0,0 km/h (0 Bft)
21.09.2013 22:40 6,8 C 89 % 1028,2 hPa 0,0 l/m 0,0 km/h (0 Bft) S-SO 157 5,1 C 6,8 C 0,0 km/h (0 Bft)
21.09.2013 22:45 6,7 C 89 % 1028,2 hPa 0,0 l/m 0,0 km/h (0 Bft) SO 135 5,0 C 6,7 C 0,0 km/h (0 Bft)
21.09.2013 22:50 6,7 C 89 % 1028,3 hPa 0,0 l/m 0,0 km/h (0 Bft) O 90 5,0 C 6,5 C 0,0 km/h (0 Bft)
21.09.2013 22:55 6,6 C 89 % 1028,3 hPa 0,0 l/m 0,0 km/h (0 Bft) O-SO 112 4,9 C 6,4 C 0,0 km/h (0 Bft)
21.09.2013 23:00 6,7 C 90 % 1028,3 hPa 0,0 l/m 0,0 km/h (0 Bft) SO 135 5,2 C 6,5 C 0,0 km/h (0 Bft)
21.09.2013 23:05 6,6 C 90 % 1028,3 hPa 0,0 l/m 0,0 km/h (0 Bft) SO 135 5,1 C 6,4 C 0,0 km/h (0 Bft)
21.09.2013 23:10 6,3 C 89 % 1028,2 hPa 0,0 l/m 0,0 km/h (0 Bft) W 270 4,6 C 6,4 C 0,0 km/h (0 Bft)
21.09.2013 23:15 6,5 C 90 % 1028,2 hPa 0,0 l/m 0,0 km/h (0 Bft) W 270 5,0 C 6,3 C 0,0 km/h (0 Bft)
21.09.2013 23:20 6,3 C 90 % 1028,2 hPa 0,0 l/m 0,0 km/h (0 Bft) S-SW 202 4,8 C 6,1 C 0,0 km/h (0 Bft)
21.09.2013 23:25 6,2 C 90 % 1028,2 hPa 0,0 l/m 0,0 km/h (0 Bft) S-SO 157 4,7 C 6,1 C 0,0 km/h (0 Bft)
21.09.2013 23:30 6,3 C 90 % 1028,3 hPa 0,0 l/m 0,0 km/h (0 Bft) W 270 4,8 C 6,0 C 0,0 km/h (0 Bft)
21.09.2013 23:35 6,4 C 90 % 1028,3 hPa 0,0 l/m 0,0 km/h (0 Bft) W-SW 247 4,9 C 5,9 C 0,0 km/h (0 Bft)
21.09.2013 23:40 6,1 C 90 % 1028,3 hPa 0,0 l/m 0,0 km/h (0 Bft) W 270 4,6 C 5,9 C 0,0 km/h (0 Bft)
21.09.2013 23:45 6,0 C 90 % 1028,3 hPa 0,0 l/m 0,0 km/h (0 Bft) W 270 4,5 C 5,8 C 0,0 km/h (0 Bft)
21.09.2013 23:50 5,8 C 91 % 1028,2 hPa 0,0 l/m 0,0 km/h (0 Bft) W 270 4,4 C 5,8 C 0,0 km/h (0 Bft)
21.09.2013 23:55 5,6 C 91 % 1028,2 hPa 0,0 l/m 0,0 km/h (0 Bft) W 270 4,2 C 5,7 C 0,0 km/h (0 Bft)
_ Min-Zeit 23:55 12:45 00:00 - 23:55 - - 23:55 23:55 23:55
Minimum _ 5,6 C 46 % 1023,4 hPa - 0,0 km/h (0 Bft) - - 4,2 C 5,7 C 0,0 km/h (0 Bft)
_ Max-Zeit 12:45 23:55 21:45 23:55 14:25 - - 09:35 12:45 14:20
Maximum _ 20,1 C 91 % 1028,6 hPa 0,0 l/m 6,8 km/h
N-NO (2 Bft)
- - 10,5 C 22,6 C 12,4 km/h
W-SW (3 Bft)
Durchschnitt _ 12,1 C 75 % 1026,5 hPa #0,0 l/m 2,3 km/h (1 Bft) S - 7,6 C 13,1 C 2,9 km/h (1 Bft)